Location: Nelson
(41.2830°S, 173.2830°E)
Time: 09:17:04
(UTC+13:00)

Cosmos 1939 Rocket - Pass Details

Date: 24 January 2019
Orbit: 531 x 587 km, 97.5° (Epoch: 16 February)

Event Time Altitude Azimuth Distance (km) Brightness Sun altitude
Rises 21:27:25 0° 165° (SSE) 2,849 6.7 -6.1°
Reaches altitude 10° 21:29:37 10° 162° (SSE) 1,944 5.8 -6.4°
Maximum altitude 21:33:50 65° 80° (E) 657 3.0 -7.1°
Drops below altitude 10° 21:37:59 10° 357° (N) 1,917 5.3 -7.8°
Sets 21:40:08 0° 354° (N) 2,806 6.1 -8.1°
